Time,TemperatureF,DewpointF,PressureIn,WindDirection,WindDirectionDegrees,WindSpeedMPH,WindSpeedGustMPH,Humidity,HourlyPrecipIn,Conditions,Clouds,dailyrainin,SoftwareType,DateUTC
2013-07-03 00:00:00,54.8,47.7,30.08,SE,128,1.0,1.0,77,0.00,,CLR,0.00,VWS V14.01,2013-07-03 04:00:00,
2013-07-03 00:01:00,54.7,47.6,30.08,SE,128,0.0,0.0,77,0.00,,CLR,0.00,VWS V14.01,2013-07-03 04:01:00,
2013-07-03 00:03:00,54.6,47.5,30.08,SE,128,1.0,2.0,77,0.00,,CLR,0.00,VWS V14.01,2013-07-03 04:03:00,
2013-07-03 00:04:00,54.6,47.9,30.08,SE,128,1.0,2.0,78,0.00,,CLR,0.00,VWS V14.01,2013-07-03 04:04:00,
2013-07-03 00:09:00,54.2,47.8,30.08,SE,128,1.0,1.0,79,0.00,,CLR,0.00,VWS V14.01,2013-07-03 04:09:00,
2013-07-03 00:14:00,54.1,48.1,30.08,SE,128,0.0,0.0,80,0.00,,CLR,0.00,VWS V14.01,2013-07-03 04:14:00,
2013-07-03 00:19:00,54.1,47.7,30.08,SE,128,0.0,1.0,79,0.00,,CLR,0.00,VWS V14.01,2013-07-03 04:19:00,
2013-07-03 00:24:00,54.1,48.1,30.08,SE,128,0.0,0.0,80,0.00,,CLR,0.00,VWS V14.01,2013-07-03 04:24:00,
2013-07-03 00:29:00,54.1,47.7,30.08,SE,128,0.0,1.0,79,0.00,,CLR,0.00,VWS V14.01,2013-07-03 04:29:00,
2013-07-03 00:31:00,54.1,48.1,30.08,SE,128,1.0,2.0,80,0.00,,CLR,0.00,VWS V14.01,2013-07-03 04:31:00,
2013-07-03 00:32:00,54.0,48.0,30.08,SE,128,1.0,1.0,80,0.00,,CLR,0.00,VWS V14.01,2013-07-03 04:32:00,
2013-07-03 00:37:00,54.0,48.0,30.09,SE,128,1.0,1.0,80,0.00,,CLR,0.00,VWS V14.01,2013-07-03 04:37:00,
2013-07-03 00:42:00,54.0,47.6,30.09,SE,128,0.0,1.0,79,0.00,,CLR,0.00,VWS V14.01,2013-07-03 04:42:00,
2013-07-03 00:45:00,53.9,47.9,30.09,SE,128,1.0,2.0,80,0.00,,CLR,0.00,VWS V14.01,2013-07-03 04:45:00,
2013-07-03 00:46:00,53.9,47.9,30.09,SE,128,1.0,2.0,80,0.00,,CLR,0.00,VWS V14.01,2013-07-03 04:46:00,
2013-07-03 00:51:00,53.9,47.9,30.09,SE,128,1.0,1.0,80,0.00,,CLR,0.00,VWS V14.01,2013-07-03 04:51:00,
2013-07-03 00:54:00,53.9,47.5,30.09,SE,128,1.0,2.0,79,0.00,,CLR,0.00,VWS V14.01,2013-07-03 04:54:00,
2013-07-03 00:59:00,54.0,47.6,30.09,SE,128,1.0,1.0,79,0.00,,CLR,0.00,VWS V14.01,2013-07-03 04:59:00,
2013-07-03 01:04:00,54.1,47.7,30.08,SE,128,0.0,0.0,79,0.00,,CLR,0.00,VWS V14.01,2013-07-03 05:04:00,
2013-07-03 01:07:00,54.1,47.7,30.08,SE,128,1.0,2.0,79,0.00,,CLR,0.00,VWS V14.01,2013-07-03 05:07:00,
2013-07-03 01:12:00,54.2,48.5,30.09,SE,125,0.0,0.0,81,0.00,,CLR,0.00,VWS V14.01,2013-07-03 05:12:00,
2013-07-03 01:17:00,54.2,48.2,30.08,SE,125,0.0,0.0,80,0.00,,CLR,0.00,VWS V14.01,2013-07-03 05:17:00,
2013-07-03 01:19:00,54.2,48.2,30.08,SE,125,0.0,0.0,80,0.00,,CLR,0.00,VWS V14.01,2013-07-03 05:19:00,
2013-07-03 01:24:00,54.2,47.8,30.08,SE,125,0.0,0.0,79,0.00,,CLR,0.00,VWS V14.01,2013-07-03 05:24:00,
2013-07-03 01:29:00,54.2,48.2,30.08,SE,125,0.0,1.0,80,0.00,,CLR,0.00,VWS V14.01,2013-07-03 05:29:00,
2013-07-03 01:34:00,54.2,48.2,30.08,SE,125,1.0,1.0,80,0.00,,CLR,0.00,VWS V14.01,2013-07-03 05:34:00,
2013-07-03 01:39:00,54.3,47.6,30.08,SE,125,0.0,1.0,78,0.00,,CLR,0.00,VWS V14.01,2013-07-03 05:39:00,
2013-07-03 01:44:00,54.6,47.5,30.08,SE,144,2.0,2.0,77,0.00,,CLR,0.00,VWS V14.01,2013-07-03 05:44:00,
2013-07-03 01:49:00,54.7,48.0,30.08,SE,141,2.0,2.0,78,0.00,,CLR,0.00,VWS V14.01,2013-07-03 05:49:00,
2013-07-03 01:54:00,54.6,48.2,30.08,SE,137,1.0,1.0,79,0.00,,CLR,0.00,VWS V14.01,2013-07-03 05:54:00,
2013-07-03 01:57:00,54.6,48.2,30.08,SE,137,1.0,1.0,79,0.00,,CLR,0.00,VWS V14.01,2013-07-03 05:57:00,
2013-07-03 01:58:00,54.6,48.6,30.08,SE,137,0.0,1.0,80,0.00,,CLR,0.00,VWS V14.01,2013-07-03 05:58:00,
2013-07-03 02:02:00,54.6,48.6,30.08,SE,137,1.0,1.0,80,0.00,,CLR,0.00,VWS V14.01,2013-07-03 06:02:00,
2013-07-03 02:08:00,54.5,48.5,30.08,SE,137,0.0,0.0,80,0.00,,CLR,0.00,VWS V14.01,2013-07-03 06:08:00,
2013-07-03 02:13:00,54.6,48.9,30.08,SE,137,1.0,1.0,81,0.00,,CLR,0.00,VWS V14.01,2013-07-03 06:13:00,
2013-07-03 02:16:00,54.6,48.9,30.08,SE,138,0.0,0.0,81,0.00,,CLR,0.00,VWS V14.01,2013-07-03 06:16:00,
2013-07-03 02:17:00,54.6,48.9,30.08,SE,138,0.0,0.0,81,0.00,,CLR,0.00,VWS V14.01,2013-07-03 06:17:00,
2013-07-03 02:22:00,54.5,48.8,30.08,SE,138,1.0,2.0,81,0.00,,CLR,0.00,VWS V14.01,2013-07-03 06:22:00,
2013-07-03 02:24:00,54.5,48.8,30.08,SE,138,1.0,1.0,81,0.00,,CLR,0.00,VWS V14.01,2013-07-03 06:24:00,
2013-07-03 02:26:00,54.4,48.7,30.08,SE,138,1.0,2.0,81,0.00,,CLR,0.00,VWS V14.01,2013-07-03 06:26:00,
2013-07-03 02:31:00,54.4,49.0,30.08,SE,138,1.0,1.0,82,0.00,,CLR,0.00,VWS V14.01,2013-07-03 06:31:00,
2013-07-03 02:32:00,54.3,48.9,30.08,SE,138,1.0,1.0,82,0.00,,CLR,0.00,VWS V14.01,2013-07-03 06:32:00,
2013-07-03 02:37:00,54.2,49.2,30.08,SE,138,1.0,2.0,83,0.00,,CLR,0.00,VWS V14.01,2013-07-03 06:37:00,
2013-07-03 02:42:00,54.1,48.7,30.08,SE,138,1.0,1.0,82,0.00,,CLR,0.00,VWS V14.01,2013-07-03 06:42:00,
2013-07-03 02:43:00,54.1,48.7,30.08,SE,138,0.0,0.0,82,0.00,,CLR,0.00,VWS V14.01,2013-07-03 06:43:00,
2013-07-03 02:49:00,54.0,48.6,30.09,SE,138,0.0,0.0,82,0.00,,CLR,0.00,VWS V14.01,2013-07-03 06:49:00,
2013-07-03 02:54:00,53.9,48.5,30.09,SE,138,1.0,1.0,82,0.00,,CLR,0.00,VWS V14.01,2013-07-03 06:54:00,
2013-07-03 02:55:00,53.9,48.5,30.08,SE,138,1.0,1.0,82,0.00,,CLR,0.00,VWS V14.01,2013-07-03 06:55:00,
2013-07-03 03:00:00,53.7,48.3,30.08,SE,138,0.0,0.0,82,0.00,,CLR,0.00,VWS V14.01,2013-07-03 07:00:00,
2013-07-03 03:05:00,53.6,48.6,30.08,SE,138,1.0,1.0,83,0.00,,CLR,0.00,VWS V14.01,2013-07-03 07:05:00,
2013-07-03 03:10:00,53.6,48.6,30.08,SE,138,0.0,1.0,83,0.00,,CLR,0.00,VWS V14.01,2013-07-03 07:10:00,
2013-07-03 03:15:00,53.5,48.5,30.08,SE,138,0.0,1.0,83,0.00,,CLR,0.00,VWS V14.01,2013-07-03 07:15:00,
2013-07-03 03:16:00,53.5,49.1,30.08,SE,138,1.0,1.0,85,0.00,,CLR,0.00,VWS V14.01,2013-07-03 07:16:00,
2013-07-03 03:21:00,53.4,49.0,30.08,SE,138,1.0,1.0,85,0.00,,CLR,0.00,VWS V14.01,2013-07-03 07:21:00,
2013-07-03 03:26:00,53.5,49.1,30.08,SE,138,1.0,1.0,85,0.00,,CLR,0.00,VWS V14.01,2013-07-03 07:26:00,
2013-07-03 03:32:00,53.6,48.9,30.08,ESE,119,2.0,2.0,84,0.00,,CLR,0.00,VWS V14.01,2013-07-03 07:32:00,
2013-07-03 03:37:00,53.7,49.0,30.08,ESE,119,1.0,2.0,84,0.00,,CLR,0.00,VWS V14.01,2013-07-03 07:37:00,
2013-07-03 03:38:00,53.8,49.1,30.08,ESE,119,1.0,1.0,84,0.00,,CLR,0.00,VWS V14.01,2013-07-03 07:38:00,
2013-07-03 03:44:00,53.9,49.2,30.08,ESE,119,0.0,1.0,84,0.00,,CLR,0.00,VWS V14.01,2013-07-03 07:44:00,
2013-07-03 03:49:00,54.0,49.3,30.08,SE,129,0.0,0.0,84,0.00,,CLR,0.00,VWS V14.01,2013-07-03 07:49:00,
2013-07-03 03:50:00,54.0,49.0,30.08,SE,129,0.0,1.0,83,0.00,,CLR,0.00,VWS V14.01,2013-07-03 07:50:00,
2013-07-03 03:55:00,54.1,49.1,30.07,SE,129,1.0,1.0,83,0.00,,CLR,0.00,VWS V14.01,2013-07-03 07:55:00,
2013-07-03 04:01:00,54.1,49.1,30.07,SE,129,0.0,1.0,83,0.00,,CLR,0.00,VWS V14.01,2013-07-03 08:01:00,
2013-07-03 04:06:00,54.1,49.1,30.07,SE,129,0.0,0.0,83,0.00,,CLR,0.00,VWS V14.01,2013-07-03 08:06:00,
2013-07-03 04:10:00,54.1,49.4,30.07,SE,129,1.0,2.0,84,0.00,,CLR,0.00,VWS V14.01,2013-07-03 08:10:00,
2013-07-03 04:14:00,54.1,49.4,30.07,SE,129,0.0,0.0,84,0.00,,CLR,0.00,VWS V14.01,2013-07-03 08:14:00,
2013-07-03 04:18:00,54.1,49.4,30.07,SE,130,0.0,1.0,84,0.00,,CLR,0.00,VWS V14.01,2013-07-03 08:18:00,
2013-07-03 04:23:00,54.1,49.4,30.07,SE,130,1.0,1.0,84,0.00,,CLR,0.00,VWS V14.01,2013-07-03 08:23:00,
2013-07-03 04:28:00,54.1,49.4,30.07,SE,130,0.0,1.0,84,0.00,,CLR,0.00,VWS V14.01,2013-07-03 08:28:00,
2013-07-03 04:33:00,54.1,49.4,30.07,SE,130,0.0,0.0,84,0.00,,CLR,0.00,VWS V14.01,2013-07-03 08:33:00,
2013-07-03 04:38:00,54.2,49.5,30.07,SE,130,0.0,0.0,84,0.00,,CLR,0.00,VWS V14.01,2013-07-03 08:38:00,
2013-07-03 04:40:00,54.2,49.5,30.07,SE,130,0.0,0.0,84,0.00,,CLR,0.00,VWS V14.01,2013-07-03 08:40:00,
2013-07-03 04:45:00,54.2,49.8,30.07,SE,130,1.0,1.0,85,0.00,,CLR,0.00,VWS V14.01,2013-07-03 08:45:00,
2013-07-03 04:50:00,54.0,49.9,30.07,SE,130,2.0,2.0,86,0.00,,CLR,0.00,VWS V14.01,2013-07-03 08:50:00,
2013-07-03 04:54:00,53.9,49.5,30.07,SE,130,2.0,2.0,85,0.00,,CLR,0.00,VWS V14.01,2013-07-03 08:54:00,
2013-07-03 04:55:00,53.9,49.5,30.07,SE,129,2.0,2.0,85,0.00,,CLR,0.00,VWS V14.01,2013-07-03 08:55:00,
2013-07-03 05:00:00,53.9,49.5,30.07,SE,132,0.0,1.0,85,0.00,,CLR,0.00,VWS V14.01,2013-07-03 09:00:00,
2013-07-03 05:05:00,53.9,49.5,30.07,SE,132,0.0,0.0,85,0.00,,CLR,0.00,VWS V14.01,2013-07-03 09:05:00,
2013-07-03 05:10:00,53.9,49.8,30.07,SE,132,1.0,1.0,86,0.00,,CLR,0.00,VWS V14.01,2013-07-03 09:10:00,
2013-07-03 05:15:00,53.9,49.8,30.07,SE,132,0.0,1.0,86,0.00,,CLR,0.00,VWS V14.01,2013-07-03 09:15:00,
2013-07-03 05:20:00,53.9,49.8,30.07,SE,132,0.0,0.0,86,0.00,,CLR,0.00,VWS V14.01,2013-07-03 09:20:00,
2013-07-03 05:26:00,53.9,49.5,30.08,ESE,112,2.0,2.0,85,0.00,,CLR,0.00,VWS V14.01,2013-07-03 09:26:00,
2013-07-03 05:31:00,53.9,49.5,30.08,SSE,148,2.0,2.0,85,0.00,,CLR,0.00,VWS V14.01,2013-07-03 09:31:00,
2013-07-03 05:36:00,54.0,49.9,30.08,SSE,148,0.0,1.0,86,0.00,,CLR,0.00,VWS V14.01,2013-07-03 09:36:00,
2013-07-03 05:41:00,54.0,49.9,30.08,SSE,148,0.0,1.0,86,0.00,,CLR,0.00,VWS V14.01,2013-07-03 09:41:00,
2013-07-03 05:46:00,54.1,50.0,30.08,SSE,148,1.0,2.0,86,0.00,,CLR,0.00,VWS V14.01,2013-07-03 09:46:00,
2013-07-03 05:49:00,54.2,50.1,30.08,SSE,148,1.0,1.0,86,0.00,,CLR,0.00,VWS V14.01,2013-07-03 09:49:00,
2013-07-03 05:50:00,54.2,50.1,30.08,SSE,148,0.0,1.0,86,0.00,,CLR,0.00,VWS V14.01,2013-07-03 09:50:00,
2013-07-03 05:55:00,54.3,50.2,30.08,SSE,148,0.0,0.0,86,0.00,,CLR,0.00,VWS V14.01,2013-07-03 09:55:00,
2013-07-03 06:00:00,54.3,50.2,30.08,SSE,148,0.0,0.0,86,0.00,,CLR,0.00,VWS V14.01,2013-07-03 10:00:00,
2013-07-03 06:04:00,54.4,50.3,30.08,SSE,148,0.0,1.0,86,0.00,,CLR,0.00,VWS V14.01,2013-07-03 10:04:00,
2013-07-03 06:05:00,54.4,50.3,30.08,SSE,148,0.0,1.0,86,0.00,,CLR,0.00,VWS V14.01,2013-07-03 10:05:00,
2013-07-03 06:10:00,54.5,50.4,30.08,SSE,148,2.0,2.0,86,0.00,,CLR,0.00,VWS V14.01,2013-07-03 10:10:00,
2013-07-03 06:15:00,54.6,50.5,30.08,SSE,148,2.0,2.0,86,0.00,,CLR,0.00,VWS V14.01,2013-07-03 10:15:00,
2013-07-03 06:20:00,54.8,50.4,30.08,SSE,148,0.0,1.0,85,0.00,,CLR,0.00,VWS V14.01,2013-07-03 10:20:00,
2013-07-03 06:25:00,54.8,50.4,30.08,SSE,148,1.0,1.0,85,0.00,,CLR,0.00,VWS V14.01,2013-07-03 10:25:00,
2013-07-03 06:30:00,54.9,50.8,30.08,SSE,148,1.0,1.0,86,0.00,,CLR,0.00,VWS V14.01,2013-07-03 10:30:00,
2013-07-03 06:31:00,54.9,50.8,30.08,SSE,148,0.0,1.0,86,0.00,,CLR,0.00,VWS V14.01,2013-07-03 10:31:00,
2013-07-03 06:36:00,55.0,50.9,30.08,SSE,148,0.0,1.0,86,0.00,,CLR,0.00,VWS V14.01,2013-07-03 10:36:00,
2013-07-03 06:41:00,54.9,50.8,30.08,SSE,148,0.0,0.0,86,0.00,,CLR,0.00,VWS V14.01,2013-07-03 10:41:00,
2013-07-03 06:46:00,55.0,50.9,30.08,SSE,148,0.0,1.0,86,0.00,,CLR,0.00,VWS V14.01,2013-07-03 10:46:00,
2013-07-03 06:49:00,55.0,50.6,30.08,SSE,148,0.0,1.0,85,0.00,,CLR,0.00,VWS V14.01,2013-07-03 10:49:00,
2013-07-03 06:54:00,55.1,51.3,30.08,SSE,148,0.0,0.0,87,0.00,,CLR,0.00,VWS V14.01,2013-07-03 10:54:00,
2013-07-03 06:55:00,55.1,51.3,30.08,SSE,148,0.0,0.0,87,0.00,,CLR,0.00,VWS V14.01,2013-07-03 10:55:00,
2013-07-03 06:57:00,55.1,51.6,30.09,SSE,148,0.0,0.0,88,0.00,,CLR,0.00,VWS V14.01,2013-07-03 10:57:00,
2013-07-03 07:02:00,55.3,51.8,30.08,SSE,148,1.0,1.0,88,0.00,,CLR,0.00,VWS V14.01,2013-07-03 11:02:00,
2013-07-03 07:07:00,55.5,51.4,30.09,SSE,148,0.0,0.0,86,0.00,,CLR,0.00,VWS V14.01,2013-07-03 11:07:00,
2013-07-03 07:08:00,55.6,51.5,30.08,SSE,148,0.0,0.0,86,0.00,,CLR,0.00,VWS V14.01,2013-07-03 11:08:00,
2013-07-03 07:09:00,55.6,51.5,30.08,SSE,148,0.0,1.0,86,0.00,,CLR,0.00,VWS V14.01,2013-07-03 11:09:00,
2013-07-03 07:14:00,56.0,51.6,30.08,SSE,148,2.0,2.0,85,0.00,,CLR,0.00,VWS V14.01,2013-07-03 11:14:00,
2013-07-03 07:19:00,56.6,51.5,30.09,SSE,149,1.0,1.0,83,0.00,,CLR,0.00,VWS V14.01,2013-07-03 11:19:00,
2013-07-03 07:23:00,57.1,52.0,30.09,SSE,158,2.0,2.0,83,0.00,,CLR,0.00,VWS V14.01,2013-07-03 11:23:00,
2013-07-03 07:25:00,57.4,52.3,30.09,SE,146,1.0,2.0,83,0.00,,CLR,0.00,VWS V14.01,2013-07-03 11:25:00,
2013-07-03 07:30:00,58.0,52.5,30.09,SE,144,1.0,1.0,82,0.00,,CLR,0.00,VWS V14.01,2013-07-03 11:30:00,
2013-07-03 07:35:00,58.3,52.8,30.09,SE,144,0.0,0.0,82,0.00,,CLR,0.00,VWS V14.01,2013-07-03 11:35:00,
2013-07-03 07:40:00,58.4,52.9,30.09,SE,144,0.0,1.0,82,0.00,,CLR,0.00,VWS V14.01,2013-07-03 11:40:00,
2013-07-03 07:45:00,58.5,53.0,30.09,SE,144,0.0,1.0,82,0.00,,CLR,0.00,VWS V14.01,2013-07-03 11:45:00,
2013-07-03 07:50:00,58.5,53.0,30.09,SE,144,0.0,1.0,82,0.00,,CLR,0.00,VWS V14.01,2013-07-03 11:50:00,
2013-07-03 07:55:00,58.5,53.0,30.09,SE,144,1.0,1.0,82,0.00,,CLR,0.00,VWS V14.01,2013-07-03 11:55:00,
2013-07-03 07:59:00,58.4,52.9,30.09,SE,144,1.0,1.0,82,0.00,,CLR,0.00,VWS V14.01,2013-07-03 11:59:00,
2013-07-03 08:02:00,58.5,53.0,30.09,ESE,118,1.0,1.0,82,0.00,,CLR,0.00,VWS V14.01,2013-07-03 12:02:00,
2013-07-03 08:07:00,59.0,53.2,30.09,ESE,118,0.0,0.0,81,0.00,,CLR,0.00,VWS V14.01,2013-07-03 12:07:00,
2013-07-03 08:12:00,59.6,53.1,30.09,SE,138,3.0,3.0,79,0.00,,CLR,0.00,VWS V14.01,2013-07-03 12:12:00,
2013-07-03 08:16:00,60.9,53.3,30.09,SSE,153,2.0,3.0,76,0.00,,CLR,0.00,VWS V14.01,2013-07-03 12:16:00,
2013-07-03 08:20:00,61.8,53.8,30.09,SSE,149,0.0,2.0,75,0.00,,CLR,0.00,VWS V14.01,2013-07-03 12:20:00,
2013-07-03 08:25:00,63.1,52.8,30.09,SE,135,3.0,3.0,69,0.00,,CLR,0.00,VWS V14.01,2013-07-03 12:25:00,
2013-07-03 08:30:00,64.2,53.4,30.09,SSE,163,2.0,4.0,68,0.00,,CLR,0.00,VWS V14.01,2013-07-03 12:30:00,
2013-07-03 08:36:00,65.2,53.6,30.09,SE,144,4.0,5.0,66,0.00,,CLR,0.00,VWS V14.01,2013-07-03 12:36:00,
2013-07-03 08:41:00,66.0,52.2,30.09,SSE,150,1.0,2.0,61,0.00,,CLR,0.00,VWS V14.01,2013-07-03 12:41:00,
2013-07-03 08:46:00,66.6,52.3,30.09,SSE,164,1.0,2.0,60,0.00,,CLR,0.00,VWS V14.01,2013-07-03 12:46:00,
2013-07-03 08:51:00,67.2,53.3,30.09,SE,142,1.0,1.0,61,0.00,,CLR,0.00,VWS V14.01,2013-07-03 12:51:00,
2013-07-03 08:56:00,67.9,52.6,30.09,SSE,150,1.0,2.0,58,0.00,,CLR,0.00,VWS V14.01,2013-07-03 12:56:00,
2013-07-03 09:01:00,68.3,52.0,30.09,SSE,161,6.0,6.0,56,0.00,,CLR,0.00,VWS V14.01,2013-07-03 13:01:00,
2013-07-03 09:06:00,68.6,51.3,30.09,SE,125,5.0,5.0,54,0.00,,CLR,0.00,VWS V14.01,2013-07-03 13:06:00,
2013-07-03 09:12:00,68.8,51.5,30.09,SSE,151,2.0,4.0,54,0.00,,CLR,0.00,VWS V14.01,2013-07-03 13:12:00,
2013-07-03 09:17:00,69.2,52.4,30.09,ESE,103,4.0,4.0,55,0.00,,CLR,0.00,VWS V14.01,2013-07-03 13:17:00,
2013-07-03 09:22:00,69.6,52.2,30.09,ESE,113,3.0,4.0,54,0.00,,CLR,0.00,VWS V14.01,2013-07-03 13:22:00,
2013-07-03 09:25:00,69.8,51.9,30.09,SE,124,5.0,5.0,53,0.00,,CLR,0.00,VWS V14.01,2013-07-03 13:25:00,
2013-07-03 09:26:00,69.8,51.9,30.09,SE,125,4.0,4.0,53,0.00,,CLR,0.00,VWS V14.01,2013-07-03 13:26:00,
2013-07-03 09:31:00,69.8,51.9,30.09,SE,132,4.0,7.0,53,0.00,,CLR,0.00,VWS V14.01,2013-07-03 13:31:00,
2013-07-03 09:36:00,69.9,52.0,30.09,ESE,119,7.0,8.0,53,0.00,,CLR,0.00,VWS V14.01,2013-07-03 13:36:00,
2013-07-03 09:37:00,69.9,51.0,30.10,ESE,108,8.0,9.0,51,0.00,,CLR,0.00,VWS V14.01,2013-07-03 13:37:00,
2013-07-03 09:42:00,70.0,51.6,30.10,SE,125,1.0,4.0,52,0.00,,CLR,0.00,VWS V14.01,2013-07-03 13:42:00,
2013-07-03 09:47:00,70.3,52.4,30.10,SE,125,1.0,2.0,53,0.00,,CLR,0.00,VWS V14.01,2013-07-03 13:47:00,
2013-07-03 09:52:00,70.5,52.0,30.10,ESE,111,4.0,7.0,52,0.00,,CLR,0.00,VWS V14.01,2013-07-03 13:52:00,
2013-07-03 09:58:00,70.5,52.0,30.10,SE,137,7.0,7.0,52,0.00,,CLR,0.00,VWS V14.01,2013-07-03 13:58:00,
2013-07-03 10:03:00,70.6,52.1,30.10,SE,136,7.0,7.0,52,0.00,,CLR,0.00,VWS V14.01,2013-07-03 14:03:00,
2013-07-03 10:06:00,70.8,50.2,30.10,SSE,160,3.0,4.0,48,0.00,,CLR,0.00,VWS V14.01,2013-07-03 14:06:00,
2013-07-03 10:09:00,71.1,50.4,30.10,ESE,117,2.0,4.0,48,0.00,,CLR,0.00,VWS V14.01,2013-07-03 14:09:00,
2013-07-03 10:14:00,71.5,51.4,30.10,South,171,2.0,2.0,49,0.00,,CLR,0.00,VWS V14.01,2013-07-03 14:14:00,
2013-07-03 10:18:00,71.9,51.2,30.10,WSW,239,4.0,4.0,48,0.00,,CLR,0.00,VWS V14.01,2013-07-03 14:18:00,
2013-07-03 10:23:00,72.3,50.4,30.10,SE,138,5.0,7.0,46,0.00,,CLR,0.00,VWS V14.01,2013-07-03 14:23:00,
2013-07-03 10:28:00,72.5,50.0,30.10,SW,223,3.0,3.0,45,0.00,,CLR,0.00,VWS V14.01,2013-07-03 14:28:00,
2013-07-03 10:30:00,72.6,50.1,30.10,SW,215,3.0,3.0,45,0.00,,CLR,0.00,VWS V14.01,2013-07-03 14:30:00,
2013-07-03 10:35:00,73.0,51.0,30.09,SE,139,4.0,5.0,46,0.00,,CLR,0.00,VWS V14.01,2013-07-03 14:35:00,
2013-07-03 10:38:00,73.2,51.2,30.09,SSE,150,1.0,2.0,46,0.00,,CLR,0.00,VWS V14.01,2013-07-03 14:38:00,
2013-07-03 10:41:00,73.3,51.3,30.09,ESE,111,6.0,7.0,46,0.00,,CLR,0.00,VWS V14.01,2013-07-03 14:41:00,
2013-07-03 10:46:00,73.3,50.1,30.10,SE,134,7.0,9.0,44,0.00,,CLR,0.00,VWS V14.01,2013-07-03 14:46:00,
2013-07-03 10:51:00,73.4,50.2,30.09,SSE,158,1.0,1.0,44,0.00,,CLR,0.00,VWS V14.01,2013-07-03 14:51:00,
2013-07-03 10:52:00,73.4,49.6,30.09,SSW,208,2.0,2.0,43,0.00,,CLR,0.00,VWS V14.01,2013-07-03 14:52:00,
2013-07-03 10:57:00,73.5,48.4,30.09,East,98,6.0,6.0,41,0.00,,CLR,0.00,VWS V14.01,2013-07-03 14:57:00,
2013-07-03 10:58:00,73.5,49.7,30.09,East,93,6.0,6.0,43,0.00,,CLR,0.00,VWS V14.01,2013-07-03 14:58:00,
2013-07-03 11:03:00,73.7,50.5,30.09,SE,141,9.0,9.0,44,0.00,,CLR,0.00,VWS V14.01,2013-07-03 15:03:00,
2013-07-03 11:08:00,74.0,49.5,30.09,East,99,3.0,4.0,42,0.00,,CLR,0.00,VWS V14.01,2013-07-03 15:08:00,
2013-07-03 11:13:00,73.8,49.9,30.09,ESE,117,6.0,9.0,43,0.00,,CLR,0.00,VWS V14.01,2013-07-03 15:13:00,
2013-07-03 11:16:00,73.8,49.3,30.09,East,100,3.0,6.0,42,0.00,,CLR,0.00,VWS V14.01,2013-07-03 15:16:00,
2013-07-03 11:21:00,73.5,47.7,30.09,ENE,57,2.0,6.0,40,0.00,,CLR,0.00,VWS V14.01,2013-07-03 15:21:00,
2013-07-03 11:26:00,73.8,49.3,30.09,SE,132,1.0,2.0,42,0.00,,CLR,0.00,VWS V14.01,2013-07-03 15:26:00,
2013-07-03 11:28:00,74.1,48.9,30.09,South,169,1.0,3.0,41,0.00,,CLR,0.00,VWS V14.01,2013-07-03 15:28:00,
2013-07-03 11:33:00,74.6,48.7,30.09,SSE,165,1.0,3.0,40,0.00,,CLR,0.00,VWS V14.01,2013-07-03 15:33:00,
2013-07-03 11:38:00,75.0,49.1,30.08,East,89,2.0,4.0,40,0.00,,CLR,0.00,VWS V14.01,2013-07-03 15:38:00,
2013-07-03 11:41:00,75.2,48.6,30.08,SE,140,7.0,9.0,39,0.00,,CLR,0.00,VWS V14.01,2013-07-03 15:41:00,
2013-07-03 11:46:00,75.3,48.0,30.08,East,96,7.0,8.0,38,0.00,,CLR,0.00,VWS V14.01,2013-07-03 15:46:00,
2013-07-03 11:52:00,74.8,48.9,30.08,East,90,7.0,7.0,40,0.00,,CLR,0.00,VWS V14.01,2013-07-03 15:52:00,
2013-07-03 11:53:00,74.8,48.9,30.08,ENE,73,2.0,2.0,40,0.00,,CLR,0.00,VWS V14.01,2013-07-03 15:53:00,
2013-07-03 11:54:00,74.8,48.9,30.08,ENE,60,2.0,2.0,40,0.00,,CLR,0.00,VWS V14.01,2013-07-03 15:54:00,
2013-07-03 11:59:00,75.3,49.3,30.08,WSW,254,4.0,6.0,40,0.00,,CLR,0.00,VWS V14.01,2013-07-03 15:59:00,
2013-07-03 12:04:00,75.9,49.2,30.08,East,99,6.0,6.0,39,0.00,,CLR,0.00,VWS V14.01,2013-07-03 16:04:00,
2013-07-03 12:09:00,76.2,48.8,30.08,East,92,3.0,4.0,38,0.00,,CLR,0.00,VWS V14.01,2013-07-03 16:09:00,
2013-07-03 12:15:00,76.2,49.5,30.08,SSW,195,3.0,4.0,39,0.00,,CLR,0.00,VWS V14.01,2013-07-03 16:15:00,
2013-07-03 12:20:00,76.2,49.5,30.08,SSE,151,4.0,4.0,39,0.00,,CLR,0.00,VWS V14.01,2013-07-03 16:20:00,
2013-07-03 12:25:00,76.2,50.8,30.08,ESE,106,8.0,9.0,41,0.00,,CLR,0.00,VWS V14.01,2013-07-03 16:25:00,
2013-07-03 12:30:00,75.2,49.9,30.08,ESE,102,7.0,7.0,41,0.00,,CLR,0.00,VWS V14.01,2013-07-03 16:30:00,
2013-07-03 12:35:00,75.7,51.6,30.08,ESE,115,8.0,10.0,43,0.00,,CLR,0.00,VWS V14.01,2013-07-03 16:35:00,
2013-07-03 12:40:00,76.2,52.7,30.08,SW,236,1.0,7.0,44,0.00,,CLR,0.00,VWS V14.01,2013-07-03 16:40:00,
2013-07-03 12:45:00,77.1,52.9,30.08,SSW,207,4.0,6.0,43,0.00,,CLR,0.00,VWS V14.01,2013-07-03 16:45:00,
2013-07-03 12:50:00,77.8,52.2,30.08,SSW,195,5.0,6.0,41,0.00,,CLR,0.00,VWS V14.01,2013-07-03 16:50:00,
2013-07-03 12:55:00,78.3,52.0,30.07,ESE,118,7.0,11.0,40,0.00,,CLR,0.00,VWS V14.01,2013-07-03 16:55:00,
2013-07-03 13:00:00,78.3,52.0,30.08,SE,130,2.0,3.0,40,0.00,,CLR,0.00,VWS V14.01,2013-07-03 17:00:00,
2013-07-03 13:05:00,78.4,52.8,30.08,ESE,118,4.0,8.0,41,0.00,,CLR,0.00,VWS V14.01,2013-07-03 17:05:00,
2013-07-03 13:10:00,77.8,51.6,30.08,South,187,1.0,2.0,40,0.00,,CLR,0.00,VWS V14.01,2013-07-03 17:10:00,
2013-07-03 13:15:00,77.4,51.9,30.07,SW,214,5.0,5.0,41,0.00,,CLR,0.00,VWS V14.01,2013-07-03 17:15:00,
2013-07-03 13:20:00,77.1,50.9,30.07,SE,142,7.0,7.0,40,0.00,,CLR,0.00,VWS V14.01,2013-07-03 17:20:00,
2013-07-03 13:26:00,76.8,50.7,30.08,East,94,2.0,3.0,40,0.00,,CLR,0.00,VWS V14.01,2013-07-03 17:26:00,
2013-07-03 13:31:00,76.7,51.2,30.07,SE,139,3.0,5.0,41,0.00,,CLR,0.00,VWS V14.01,2013-07-03 17:31:00,
2013-07-03 13:36:00,76.6,51.2,30.07,WSW,239,5.0,6.0,41,0.00,,CLR,0.00,VWS V14.01,2013-07-03 17:36:00,
2013-07-03 13:41:00,76.6,51.8,30.07,SW,225,6.0,6.0,42,0.00,,CLR,0.00,VWS V14.01,2013-07-03 17:41:00,
2013-07-03 13:47:00,76.9,52.1,30.07,SE,138,3.0,3.0,42,0.00,,CLR,0.00,VWS V14.01,2013-07-03 17:47:00,
2013-07-03 13:52:00,77.0,51.5,30.06,South,184,2.0,3.0,41,0.00,,CLR,0.00,VWS V14.01,2013-07-03 17:52:00,
2013-07-03 13:57:00,77.0,52.8,30.06,SSW,204,3.0,5.0,43,0.00,,CLR,0.00,VWS V14.01,2013-07-03 17:57:00,
2013-07-03 14:02:00,76.9,52.1,30.06,ESE,110,2.0,3.0,42,0.00,,CLR,0.00,VWS V14.01,2013-07-03 18:02:00,
2013-07-03 14:07:00,77.3,53.1,30.06,SSE,162,2.0,3.0,43,0.00,,CLR,0.00,VWS V14.01,2013-07-03 18:07:00,
2013-07-03 14:12:00,77.9,52.3,30.05,NNW,331,3.0,3.0,41,0.00,,CLR,0.00,VWS V14.01,2013-07-03 18:12:00,
2013-07-03 14:17:00,78.9,53.9,30.05,SSW,204,4.0,4.0,42,0.00,,CLR,0.00,VWS V14.01,2013-07-03 18:17:00,
2013-07-03 14:22:00,79.7,54.6,30.05,SE,137,10.0,10.0,42,0.00,,CLR,0.00,VWS V14.01,2013-07-03 18:22:00,
2013-07-03 14:27:00,80.1,53.6,30.04,East,92,6.0,6.0,40,0.00,,CLR,0.00,VWS V14.01,2013-07-03 18:27:00,
2013-07-03 14:32:00,80.0,53.5,30.04,ESE,114,3.0,7.0,40,0.00,,CLR,0.00,VWS V14.01,2013-07-03 18:32:00,
2013-07-03 14:37:00,79.8,54.0,30.04,SW,232,2.0,3.0,41,0.00,,CLR,0.00,VWS V14.01,2013-07-03 18:37:00,
2013-07-03 14:42:00,79.5,53.1,30.04,ESE,104,6.0,8.0,40,0.00,,CLR,0.00,VWS V14.01,2013-07-03 18:42:00,
2013-07-03 14:47:00,78.8,53.8,30.04,ESE,115,4.0,4.0,42,0.00,,CLR,0.00,VWS V14.01,2013-07-03 18:47:00,
2013-07-03 14:52:00,78.2,54.5,30.04,East,100,3.0,3.0,44,0.00,,CLR,0.00,VWS V14.01,2013-07-03 18:52:00,
2013-07-03 14:57:00,78.1,54.4,30.04,SE,146,5.0,5.0,44,0.00,,CLR,0.00,VWS V14.01,2013-07-03 18:57:00,
2013-07-03 15:02:00,77.9,53.6,30.04,West,276,1.0,2.0,43,0.00,,CLR,0.00,VWS V14.01,2013-07-03 19:02:00,
2013-07-03 15:07:00,77.8,54.8,30.04,West,271,3.0,3.0,45,0.00,,CLR,0.00,VWS V14.01,2013-07-03 19:07:00,
2013-07-03 15:12:00,77.9,54.3,30.04,SE,140,3.0,3.0,44,0.00,,CLR,0.00,VWS V14.01,2013-07-03 19:12:00,
2013-07-03 15:18:00,77.8,53.5,30.04,SSE,165,2.0,5.0,43,0.00,,CLR,0.00,VWS V14.01,2013-07-03 19:18:00,
2013-07-03 15:23:00,77.6,54.6,30.04,SW,227,3.0,4.0,45,0.00,,CLR,0.00,VWS V14.01,2013-07-03 19:23:00,
2013-07-03 15:28:00,77.9,54.9,30.04,SE,130,7.0,7.0,45,0.00,,CLR,0.00,VWS V14.01,2013-07-03 19:28:00,
2013-07-03 15:33:00,78.1,53.8,30.04,East,86,3.0,3.0,43,0.00,,CLR,0.00,VWS V14.01,2013-07-03 19:33:00,
2013-07-03 15:38:00,78.2,53.9,30.04,South,180,2.0,3.0,43,0.00,,CLR,0.00,VWS V14.01,2013-07-03 19:38:00,
2013-07-03 15:43:00,78.5,53.5,30.04,ESE,105,6.0,6.0,42,0.00,,CLR,0.00,VWS V14.01,2013-07-03 19:43:00,
2013-07-03 15:48:00,78.7,55.0,30.04,West,272,3.0,3.0,44,0.00,,CLR,0.00,VWS V14.01,2013-07-03 19:48:00,
2013-07-03 15:53:00,78.7,53.7,30.03,WSW,243,2.0,3.0,42,0.00,,CLR,0.00,VWS V14.01,2013-07-03 19:53:00,
2013-07-03 15:58:00,79.2,54.8,30.03,West,259,2.0,4.0,43,0.00,,CLR,0.00,VWS V14.01,2013-07-03 19:58:00,
2013-07-03 16:03:00,79.7,55.9,30.03,ESE,120,7.0,7.0,44,0.00,,CLR,0.00,VWS V14.01,2013-07-03 20:03:00,
2013-07-03 16:08:00,78.8,55.1,30.03,East,86,5.0,6.0,44,0.00,,CLR,0.00,VWS V14.01,2013-07-03 20:08:00,
2013-07-03 16:13:00,77.9,54.3,30.03,NNE,21,3.0,4.0,44,0.00,,CLR,0.00,VWS V14.01,2013-07-03 20:13:00,
2013-07-03 16:18:00,77.5,55.1,30.03,East,82,7.0,7.0,46,0.00,,CLR,0.00,VWS V14.01,2013-07-03 20:18:00,
2013-07-03 16:23:00,76.9,55.2,30.03,ENE,77,8.0,9.0,47,0.00,,CLR,0.00,VWS V14.01,2013-07-03 20:23:00,
2013-07-03 16:28:00,76.2,55.1,30.03,East,101,8.0,9.0,48,0.00,,CLR,0.00,VWS V14.01,2013-07-03 20:28:00,
2013-07-03 16:33:00,75.5,54.5,30.03,East,79,8.0,8.0,48,0.00,,CLR,0.00,VWS V14.01,2013-07-03 20:33:00,
2013-07-03 16:38:00,75.0,55.1,30.03,ENE,63,3.0,6.0,50,0.00,,CLR,0.00,VWS V14.01,2013-07-03 20:38:00,
2013-07-03 16:43:00,75.1,55.2,30.03,East,86,3.0,4.0,50,0.00,,CLR,0.00,VWS V14.01,2013-07-03 20:43:00,
2013-07-03 16:48:00,75.6,55.1,30.03,ESE,107,10.0,10.0,49,0.00,,CLR,0.00,VWS V14.01,2013-07-03 20:48:00,
2013-07-03 16:53:00,76.1,55.6,30.03,ESE,106,7.0,10.0,49,0.00,,CLR,0.00,VWS V14.01,2013-07-03 20:53:00,
2013-07-03 16:59:00,76.5,55.4,30.03,ESE,105,9.0,10.0,48,0.00,,CLR,0.00,VWS V14.01,2013-07-03 20:59:00,
2013-07-03 17:04:00,76.0,54.9,30.02,East,96,7.0,10.0,48,0.00,,CLR,0.00,VWS V14.01,2013-07-03 21:04:00,
2013-07-03 17:09:00,75.5,55.0,30.02,East,81,9.0,10.0,49,0.00,,CLR,0.00,VWS V14.01,2013-07-03 21:09:00,
2013-07-03 17:14:00,75.1,55.8,30.02,ENE,57,5.0,6.0,51,0.00,,CLR,0.00,VWS V14.01,2013-07-03 21:14:00,
2013-07-03 17:19:00,75.5,55.0,30.02,East,98,7.0,9.0,49,0.00,,CLR,0.00,VWS V14.01,2013-07-03 21:19:00,
2013-07-03 17:24:00,75.9,56.5,30.02,ESE,102,7.0,9.0,51,0.00,,CLR,0.00,VWS V14.01,2013-07-03 21:24:00,
2013-07-03 17:29:00,76.2,56.2,30.02,NE,53,3.0,3.0,50,0.00,,CLR,0.00,VWS V14.01,2013-07-03 21:29:00,
2013-07-03 17:34:00,76.2,55.1,30.02,East,83,8.0,8.0,48,0.00,,CLR,0.00,VWS V14.01,2013-07-03 21:34:00,
2013-07-03 17:39:00,76.3,55.8,30.02,ENE,76,8.0,9.0,49,0.00,,CLR,0.00,VWS V14.01,2013-07-03 21:39:00,
2013-07-03 17:44:00,76.0,55.5,30.02,ENE,78,7.0,9.0,49,0.00,,CLR,0.00,VWS V14.01,2013-07-03 21:44:00,
2013-07-03 17:49:00,75.3,54.8,30.02,East,84,7.0,7.0,49,0.00,,CLR,0.00,VWS V14.01,2013-07-03 21:49:00,
2013-07-03 17:54:00,74.7,54.3,30.02,ESE,107,7.0,7.0,49,0.00,,CLR,0.00,VWS V14.01,2013-07-03 21:54:00,
2013-07-03 17:59:00,74.4,54.6,30.01,East,100,7.0,8.0,50,0.00,,CLR,0.00,VWS V14.01,2013-07-03 21:59:00,
2013-07-03 18:04:00,74.5,54.7,30.01,East,83,10.0,10.0,50,0.00,,CLR,0.00,VWS V14.01,2013-07-03 22:04:00,
2013-07-03 18:09:00,74.6,54.8,30.01,ENE,76,5.0,8.0,50,0.00,,CLR,0.00,VWS V14.01,2013-07-03 22:09:00,
2013-07-03 18:14:00,74.4,54.0,30.01,ESE,113,4.0,4.0,49,0.00,,CLR,0.00,VWS V14.01,2013-07-03 22:14:00,
2013-07-03 18:20:00,73.9,53.6,30.01,East,90,4.0,8.0,49,0.00,,CLR,0.00,VWS V14.01,2013-07-03 22:20:00,
2013-07-03 18:25:00,73.7,53.9,30.01,East,80,5.0,5.0,50,0.00,,CLR,0.00,VWS V14.01,2013-07-03 22:25:00,
2013-07-03 18:30:00,74.4,53.5,30.01,East,86,5.0,9.0,48,0.00,,CLR,0.00,VWS V14.01,2013-07-03 22:30:00,
2013-07-03 18:35:00,74.1,52.6,30.01,East,80,8.0,11.0,47,0.00,,CLR,0.00,VWS V14.01,2013-07-03 22:35:00,
2013-07-03 18:40:00,74.1,52.6,30.00,East,79,5.0,7.0,47,0.00,,CLR,0.00,VWS V14.01,2013-07-03 22:40:00,
2013-07-03 18:45:00,74.2,52.7,30.01,East,99,6.0,7.0,47,0.00,,CLR,0.00,VWS V14.01,2013-07-03 22:45:00,
2013-07-03 18:50:00,73.9,53.6,30.00,East,100,7.0,7.0,49,0.00,,CLR,0.00,VWS V14.01,2013-07-03 22:50:00,
2013-07-03 18:55:00,73.6,52.7,30.00,ESE,109,9.0,11.0,48,0.00,,CLR,0.00,VWS V14.01,2013-07-03 22:55:00,
2013-07-03 19:00:00,73.3,53.6,30.00,ENE,71,5.0,8.0,50,0.00,,CLR,0.00,VWS V14.01,2013-07-03 23:00:00,
2013-07-03 19:05:00,73.1,53.4,30.00,East,94,6.0,7.0,50,0.00,,CLR,0.00,VWS V14.01,2013-07-03 23:05:00,
2013-07-03 19:10:00,73.1,52.8,30.00,ENE,70,5.0,7.0,49,0.00,,CLR,0.00,VWS V14.01,2013-07-03 23:10:00,
2013-07-03 19:15:00,73.2,52.9,30.00,East,96,7.0,7.0,49,0.00,,CLR,0.00,VWS V14.01,2013-07-03 23:15:00,
2013-07-03 19:21:00,73.0,52.7,30.00,East,86,9.0,10.0,49,0.00,,CLR,0.00,VWS V14.01,2013-07-03 23:21:00,
2013-07-03 19:26:00,72.8,53.1,30.00,ENE,75,9.0,9.0,50,0.00,,CLR,0.00,VWS V14.01,2013-07-03 23:26:00,
2013-07-03 19:31:00,72.2,53.1,30.00,East,82,7.0,8.0,51,0.00,,CLR,0.00,VWS V14.01,2013-07-03 23:31:00,
2013-07-03 19:36:00,71.9,52.8,30.00,East,85,4.0,6.0,51,0.00,,CLR,0.00,VWS V14.01,2013-07-03 23:36:00,
2013-07-03 19:41:00,71.8,53.2,30.00,East,87,5.0,6.0,52,0.00,,CLR,0.00,VWS V14.01,2013-07-03 23:41:00,
2013-07-03 19:47:00,71.7,53.7,30.00,ENE,76,3.0,4.0,53,0.00,,CLR,0.00,VWS V14.01,2013-07-03 23:47:00,
2013-07-03 19:52:00,71.7,53.7,30.00,East,86,4.0,4.0,53,0.00,,CLR,0.00,VWS V14.01,2013-07-03 23:52:00,
2013-07-03 19:57:00,71.7,53.2,30.01,East,99,4.0,4.0,52,0.00,,CLR,0.00,VWS V14.01,2013-07-03 23:57:00,
2013-07-03 20:02:00,71.4,52.3,30.01,SE,125,3.0,6.0,51,0.00,,CLR,0.00,VWS V14.01,2013-07-04 00:02:00,
2013-07-03 20:07:00,71.1,52.6,30.01,East,93,6.0,6.0,52,0.00,,CLR,0.00,VWS V14.01,2013-07-04 00:07:00,
2013-07-03 20:12:00,70.6,52.1,30.00,ESE,107,7.0,7.0,52,0.00,,CLR,0.00,VWS V14.01,2013-07-04 00:12:00,
2013-07-03 20:17:00,70.4,52.5,30.00,ENE,69,3.0,5.0,53,0.00,,CLR,0.00,VWS V14.01,2013-07-04 00:17:00,
2013-07-03 20:22:00,70.3,52.9,30.00,East,96,3.0,3.0,54,0.00,,CLR,0.00,VWS V14.01,2013-07-04 00:22:00,
2013-07-03 20:27:00,70.2,52.8,30.00,East,81,2.0,3.0,54,0.00,,CLR,0.00,VWS V14.01,2013-07-04 00:27:00,
2013-07-03 20:33:00,70.2,53.3,30.00,ENE,74,1.0,1.0,55,0.00,,CLR,0.00,VWS V14.01,2013-07-04 00:33:00,
2013-07-03 20:38:00,70.3,52.9,30.00,ENE,74,1.0,1.0,54,0.00,,CLR,0.00,VWS V14.01,2013-07-04 00:38:00,
2013-07-03 20:43:00,70.3,52.9,30.01,ENE,74,0.0,0.0,54,0.00,,CLR,0.00,VWS V14.01,2013-07-04 00:43:00,
2013-07-03 20:48:00,70.4,54.0,30.00,ENE,67,1.0,2.0,56,0.00,,CLR,0.00,VWS V14.01,2013-07-04 00:48:00,
2013-07-03 20:53:00,70.3,54.4,30.00,ENE,67,2.0,2.0,57,0.00,,CLR,0.00,VWS V14.01,2013-07-04 00:53:00,
2013-07-03 20:58:00,69.9,54.5,30.00,East,101,3.0,3.0,58,0.00,,CLR,0.00,VWS V14.01,2013-07-04 00:58:00,
2013-07-03 21:03:00,69.4,54.5,30.00,East,91,3.0,3.0,59,0.00,,CLR,0.00,VWS V14.01,2013-07-04 01:03:00,
2013-07-03 21:08:00,68.9,54.5,30.00,ENE,72,1.0,1.0,60,0.00,,CLR,0.00,VWS V14.01,2013-07-04 01:08:00,
2013-07-03 21:13:00,68.8,54.8,30.00,ENE,72,1.0,2.0,61,0.00,,CLR,0.00,VWS V14.01,2013-07-04 01:13:00,
2013-07-03 21:18:00,68.6,55.5,30.00,East,83,0.0,1.0,63,0.00,,CLR,0.00,VWS V14.01,2013-07-04 01:18:00,
2013-07-03 21:23:00,68.3,55.2,30.00,ESE,120,1.0,1.0,63,0.00,,CLR,0.00,VWS V14.01,2013-07-04 01:23:00,
2013-07-03 21:28:00,68.0,55.4,30.00,SE,125,1.0,1.0,64,0.00,,CLR,0.00,VWS V14.01,2013-07-04 01:28:00,
2013-07-03 21:33:00,67.8,55.6,30.00,SE,125,0.0,0.0,65,0.00,,CLR,0.00,VWS V14.01,2013-07-04 01:33:00,
2013-07-03 21:38:00,67.6,55.4,30.00,SE,125,0.0,0.0,65,0.00,,CLR,0.00,VWS V14.01,2013-07-04 01:38:00,
2013-07-03 21:43:00,67.3,55.6,30.00,SE,125,0.0,1.0,66,0.00,,CLR,0.00,VWS V14.01,2013-07-04 01:43:00,
2013-07-03 21:48:00,66.7,55.4,30.01,SE,125,1.0,1.0,67,0.00,,CLR,0.00,VWS V14.01,2013-07-04 01:48:00,
2013-07-03 21:53:00,66.2,55.7,30.00,SE,125,1.0,1.0,69,0.00,,CLR,0.00,VWS V14.01,2013-07-04 01:53:00,
2013-07-03 21:58:00,65.4,55.8,30.00,ESE,119,1.0,2.0,71,0.00,,CLR,0.00,VWS V14.01,2013-07-04 01:58:00,
2013-07-03 22:03:00,64.7,55.9,30.00,ESE,107,4.0,4.0,73,0.00,,CLR,0.00,VWS V14.01,2013-07-04 02:03:00,
2013-07-03 22:08:00,64.2,55.8,30.00,ESE,113,2.0,2.0,74,0.00,,CLR,0.00,VWS V14.01,2013-07-04 02:08:00,
2013-07-03 22:13:00,63.9,55.8,30.00,ESE,113,2.0,2.0,75,0.00,,CLR,0.00,VWS V14.01,2013-07-04 02:13:00,
2013-07-03 22:18:00,63.7,56.0,30.01,ESE,105,1.0,2.0,76,0.00,,CLR,0.00,VWS V14.01,2013-07-04 02:18:00,
2013-07-03 22:23:00,63.6,56.3,30.00,ESE,105,1.0,2.0,77,0.00,,CLR,0.00,VWS V14.01,2013-07-04 02:23:00,
2013-07-03 22:29:00,63.5,56.2,30.01,ESE,105,1.0,2.0,77,0.00,,CLR,0.00,VWS V14.01,2013-07-04 02:29:00,
2013-07-03 22:34:00,63.4,56.4,30.00,ESE,107,3.0,3.0,78,0.00,,CLR,0.00,VWS V14.01,2013-07-04 02:34:00,
2013-07-03 22:39:00,63.3,56.3,30.01,ESE,123,3.0,4.0,78,0.00,,CLR,0.00,VWS V14.01,2013-07-04 02:39:00,
2013-07-03 22:44:00,63.1,56.5,30.00,ESE,110,2.0,2.0,79,0.00,,CLR,0.00,VWS V14.01,2013-07-04 02:44:00,
2013-07-03 22:49:00,63.0,56.4,30.01,ESE,121,0.0,1.0,79,0.00,,CLR,0.00,VWS V14.01,2013-07-04 02:49:00,
2013-07-03 22:54:00,62.9,56.3,30.01,SE,140,1.0,1.0,79,0.00,,CLR,0.00,VWS V14.01,2013-07-04 02:54:00,
2013-07-03 22:59:00,62.8,56.2,30.01,SE,140,1.0,2.0,79,0.00,,CLR,0.00,VWS V14.01,2013-07-04 02:59:00,
2013-07-03 23:04:00,62.5,56.2,30.01,SE,140,1.0,1.0,80,0.00,,CLR,0.00,VWS V14.01,2013-07-04 03:04:00,
2013-07-03 23:09:00,62.4,56.5,30.01,SSE,168,3.0,3.0,81,0.00,,CLR,0.00,VWS V14.01,2013-07-04 03:09:00,
2013-07-03 23:14:00,62.2,56.3,30.01,SSE,168,0.0,1.0,81,0.00,,CLR,0.00,VWS V14.01,2013-07-04 03:14:00,
2013-07-03 23:19:00,62.1,56.2,30.01,SSE,168,1.0,1.0,81,0.00,,CLR,0.00,VWS V14.01,2013-07-04 03:19:00,
2013-07-03 23:24:00,62.0,56.5,30.01,SSE,168,1.0,1.0,82,0.00,,CLR,0.00,VWS V14.01,2013-07-04 03:24:00,
2013-07-03 23:29:00,61.9,56.7,30.01,SSE,168,0.0,1.0,83,0.00,,CLR,0.00,VWS V14.01,2013-07-04 03:29:00,
2013-07-03 23:34:00,61.8,56.6,30.01,SSE,168,1.0,3.0,83,0.00,,CLR,0.00,VWS V14.01,2013-07-04 03:34:00,
2013-07-03 23:39:00,61.8,57.2,30.00,ESE,122,2.0,2.0,85,0.00,,CLR,0.00,VWS V14.01,2013-07-04 03:39:00,
2013-07-03 23:45:00,61.8,57.2,30.00,ESE,122,1.0,1.0,85,0.00,,CLR,0.00,VWS V14.01,2013-07-04 03:45:00,
2013-07-03 23:50:00,61.8,56.9,30.01,SSW,213,3.0,3.0,84,0.00,,CLR,0.00,VWS V14.01,2013-07-04 03:50:00,
2013-07-03 23:55:00,61.9,57.0,30.01,SW,217,3.0,3.0,84,0.00,,CLR,0.00,VWS V14.01,2013-07-04 03:55:00,